When you browse on this site, cookies collect data to enhance your experience and personalize the content and advertising you see.
Visit our Privacy Policy to learn more. By continuing to use the site, you agree to this use of cookies and data.
  • In Hungary
  • List of Countries
  • For 7 days
  • Water Temperature
  • Weather Map
  • News
  • Weather Widgets
  • user-avatar
    Login

    Hourly Weather Zhdanovka

    Today, 15 October, Tuesday

    Time Temperature Precipitation Wind Pressure Humidity
    00:00 +12°C° 0 mm 4 mps 758 mmHg 93%
    01:00 +12°C° 0 mm 4 mps 758 mmHg 91%
    02:00 +13°C° 0 mm 5 mps 757 mmHg 89%
    03:00 +13°C° 0 mm 6 mps 757 mmHg 88%
    04:00 +13°C° 0 mm 6 mps 756 mmHg 83%
    05:00 +12°C° 0 mm 7 mps 756 mmHg 78%
    06:00 +14°C° 0 mm 7 mps 756 mmHg 74%
    07:00 +15°C° 0 mm 8 mps 756 mmHg 66%
    08:00 +16°C° 0 mm 8 mps 756 mmHg 59%
    09:00 +18°C° 0 mm 9 mps 755 mmHg 51%
    10:00 +19°C° 0 mm 9 mps 755 mmHg 48%
    11:00 +21°C° 0 mm 9 mps 755 mmHg 44%
    12:00 +22°C° 0 mm 9 mps 755 mmHg 40%
    13:00 +22°C° 0 mm 8 mps 755 mmHg 43%
    14:00 +22°C° 0 mm 8 mps 755 mmHg 46%
    15:00 +22°C° 0 mm 8 mps 755 mmHg 49%
    16:00 +20°C° 0 mm 6 mps 755 mmHg 55%
    17:00 +19°C° 0 mm 5 mps 755 mmHg 61%
    18:00 +17°C° 0 mm 4 mps 756 mmHg 67%
    19:00 +15°C° 0 mm 4 mps 756 mmHg 67%
    20:00 +15°C° 0 mm 4 mps 757 mmHg 68%
    21:00 +14°C° 0 mm 4 mps 757 mmHg 69%
    22:00 +13°C° 0 mm 4 mps 758 mmHg 72%
    23:00 +12°C° 0 mm 3 mps 758 mmHg 76%

    Tomorrow, 16 October, Wednesday

    Time Temperature Precipitation Wind Pressure Humidity
    00:00 +11°C° 0 mm 3 mps 758 mmHg 80%
    01:00 +11°C° 0 mm 4 mps 759 mmHg 81%
    02:00 +10°C° 0 mm 4 mps 760 mmHg 81%
    03:00 +8°C° 0 mm 4 mps 760 mmHg 82%
    04:00 +8°C° 0 mm 4 mps 761 mmHg 82%
    05:00 +8°C° 0 mm 3 mps 761 mmHg 82%
    06:00 +7°C° 0 mm 3 mps 761 mmHg 82%
    07:00 +8°C° 0 mm 3 mps 762 mmHg 76%
    08:00 +7°C° 0 mm 4 mps 763 mmHg 69%
    09:00 +8°C° 0 mm 4 mps 763 mmHg 63%
    10:00 +10°C° 0 mm 4 mps 764 mmHg 58%
    11:00 +10°C° 0 mm 4 mps 764 mmHg 52%
    12:00 +11°C° 0 mm 4 mps 764 mmHg 46%
    13:00 +11°C° 0 mm 4 mps 764 mmHg 44%
    14:00 +11°C° 0 mm 4 mps 764 mmHg 42%
    15:00 +11°C° 0 mm 3 mps 764 mmHg 41%
    16:00 +10°C° 0 mm 3 mps 764 mmHg 45%
    17:00 +8°C° 0 mm 3 mps 765 mmHg 49%
    18:00 +7°C° 0 mm 3 mps 765 mmHg 53%
    19:00 +7°C° 0 mm 3 mps 765 mmHg 54%
    20:00 +6°C° 0 mm 2 mps 766 mmHg 56%
    21:00 +6°C° 0 mm 2 mps 766 mmHg 58%
    22:00 +5°C° 0 mm 2 mps 766 mmHg 60%
    23:00 +5°C° 0 mm 2 mps 766 mmHg 63%

    Day after tomorrow, 17 October, Thursday

    Time Temperature Precipitation Wind Pressure Humidity
    00:00 +5°C° 0 mm 2 mps 766 mmHg 65%
    01:00 +5°C° 0 mm 2 mps 766 mmHg 66%
    02:00 +4°C° 0 mm 2 mps 766 mmHg 67%
    03:00 +4°C° 0 mm 2 mps 766 mmHg 68%
    04:00 +4°C° 0 mm 2 mps 766 mmHg 70%
    05:00 +4°C° 0 mm 2 mps 766 mmHg 72%
    06:00 +2°C° 0 mm 3 mps 766 mmHg 74%
    07:00 +4°C° 0 mm 3 mps 766 mmHg 68%
    08:00 +5°C° 0 mm 3 mps 766 mmHg 63%
    09:00 +6°C° 0 mm 4 mps 766 mmHg 58%
    10:00 +8°C° 0 mm 4 mps 766 mmHg 52%
    11:00 +10°C° 0 mm 4 mps 765 mmHg 47%
    12:00 +11°C° 0 mm 4 mps 765 mmHg 41%
    13:00 +12°C° 0 mm 4 mps 764 mmHg 39%
    14:00 +12°C° 0 mm 4 mps 764 mmHg 38%
    15:00 +12°C° 0 mm 5 mps 763 mmHg 36%
    16:00 +11°C° 0 mm 4 mps 763 mmHg 40%
    17:00 +10°C° 0 mm 4 mps 763 mmHg 43%
    18:00 +8°C° 0 mm 3 mps 762 mmHg 47%
    19:00 +8°C° 0 mm 3 mps 762 mmHg 48%
    20:00 +8°C° 0 mm 3 mps 762 mmHg 49%
    21:00 +7°C° 0 mm 3 mps 762 mmHg 50%
    22:00 +7°C° 0 mm 3 mps 761 mmHg 51%
    23:00 +7°C° 0 mm 3 mps 761 mmHg 52%

    18 October, Friday

    Time Temperature Precipitation Wind Pressure Humidity
    00:00 +7°C° 0 mm 3 mps 760 mmHg 53%
    01:00 +7°C° 0 mm 3 mps 760 mmHg 55%
    02:00 +5°C° 0 mm 3 mps 760 mmHg 57%
    03:00 +5°C° 0 mm 3 mps 760 mmHg 59%
    04:00 +5°C° 0 mm 3 mps 759 mmHg 63%
    05:00 +5°C° 0 mm 3 mps 759 mmHg 66%
    06:00 +5°C° 0 mm 3 mps 759 mmHg 69%
    07:00 +8°C° 0 mm 3 mps 759 mmHg 67%
    08:00 +9°C° 0 mm 3 mps 758 mmHg 65%
    09:00 +11°C° 0 mm 3 mps 758 mmHg 63%
    10:00 +13°C° 0 mm 3 mps 758 mmHg 60%
    11:00 +14°C° 0 mm 3 mps 758 mmHg 56%
    12:00 +17°C° 0 mm 3 mps 758 mmHg 53%
    13:00 +17°C° 0 mm 3 mps 757 mmHg 53%
    14:00 +17°C° 0 mm 3 mps 757 mmHg 54%
    15:00 +18°C° 0 mm 3 mps 757 mmHg 54%
    16:00 +16°C° 0 mm 2 mps 757 mmHg 59%
    17:00 +15°C° 0 mm 1 mps 757 mmHg 63%
    18:00 +13°C° 0 mm 0 mps 757 mmHg 68%
    19:00 +13°C° 0 mm 1 mps 757 mmHg 71%
    20:00 +13°C° 0 mm 2 mps 758 mmHg 73%
    21:00 +11°C° 0 mm 3 mps 758 mmHg 76%
    22:00 +11°C° 0 mm 4 mps 758 mmHg 79%
    23:00 +10°C° 0 mm 4 mps 759 mmHg 83%

    19 October, Saturday

    Time Temperature Precipitation Wind Pressure Humidity
    00:00 +8°C° 0 mm 5 mps 759 mmHg 87%
    01:00 +7°C° 0 mm 5 mps 759 mmHg 85%
    02:00 +7°C° 0 mm 5 mps 760 mmHg 83%
    03:00 +6°C° 0 mm 5 mps 760 mmHg 82%
    04:00 +6°C° 0 mm 5 mps 761 mmHg 78%
    05:00 +6°C° 0 mm 5 mps 761 mmHg 75%
    06:00 +6°C° 0 mm 5 mps 762 mmHg 72%
    07:00 +6°C° 0 mm 5 mps 762 mmHg 70%
    08:00 +7°C° 0 mm 5 mps 762 mmHg 68%
    09:00 +7°C° 0 mm 5 mps 763 mmHg 66%
    10:00 +7°C° 0 mm 5 mps 763 mmHg 64%
    11:00 +7°C° 0 mm 5 mps 763 mmHg 62%
    12:00 +8°C° 0 mm 4 mps 764 mmHg 59%
    13:00 +8°C° 0 mm 4 mps 764 mmHg 58%
    14:00 +8°C° 0 mm 4 mps 764 mmHg 56%
    15:00 +10°C° 0 mm 4 mps 764 mmHg 55%
    16:00 +8°C° 0 mm 4 mps 764 mmHg 54%
    17:00 +9°C° 0 mm 3 mps 764 mmHg 53%
    18:00 +9°C° 0 mm 3 mps 764 mmHg 52%
    19:00 +9°C° 0 mm 3 mps 764 mmHg 51%
    20:00 +9°C° 0 mm 3 mps 764 mmHg 50%
    21:00 +9°C° 0 mm 3 mps 764 mmHg 48%
    22:00 +9°C° 0 mm 3 mps 764 mmHg 50%
    23:00 +8°C° 0 mm 3 mps 764 mmHg 51%

    20 October, Sunday

    Time Temperature Precipitation Wind Pressure Humidity
    00:00 +8°C° 0 mm 3 mps 764 mmHg 52%
    01:00 +8°C° 0 mm 3 mps 765 mmHg 53%
    02:00 +8°C° 0 mm 3 mps 765 mmHg 55%
    03:00 +8°C° 0 mm 3 mps 765 mmHg 56%
    04:00 +7°C° 0 mm 2 mps 765 mmHg 56%
    05:00 +7°C° 0 mm 2 mps 765 mmHg 57%
    06:00 +7°C° 0 mm 2 mps 765 mmHg 58%
    07:00 +8°C° 0 mm 2 mps 765 mmHg 57%
    08:00 +8°C° 0 mm 2 mps 765 mmHg 57%
    09:00 +8°C° 0 mm 2 mps 765 mmHg 56%
    10:00 +9°C° 0 mm 2 mps 766 mmHg 55%
    11:00 +9°C° 0 mm 2 mps 766 mmHg 55%
    12:00 +10°C° 0 mm 2 mps 766 mmHg 54%
    13:00 +10°C° 0 mm 2 mps 766 mmHg 54%
    14:00 +12°C° 0 mm 2 mps 766 mmHg 53%
    15:00 +12°C° 0 mm 1 mps 766 mmHg 53%
    16:00 +10°C° 0 mm 2 mps 766 mmHg 55%
    17:00 +10°C° 0 mm 2 mps 766 mmHg 58%
    18:00 +9°C° 0 mm 2 mps 766 mmHg 61%
    19:00 +9°C° 0 mm 2 mps 766 mmHg 60%
    20:00 +8°C° 0 mm 2 mps 766 mmHg 60%
    21:00 +8°C° 0 mm 2 mps 767 mmHg 60%
    22:00 +8°C° 0 mm 2 mps 767 mmHg 59%
    23:00 +8°C° 0 mm 2 mps 767 mmHg 58%
    Show more